Temperature
23 24 25 25 25 24 23 21 21 21 21 20 19 19 19 20 20 20 19 19 19 19 18 18 17 17 17 17 17 17 16 16 16 16 16 16 16 16 16 16 15 15 15 15
22 24 24 24 24 24 24 23 22 21 20 20 19 19 19 19 19 19 19 19 19 19 18 18 18 17 17 17 17 17 17 17 16 16 16 16 16 16 15 15 15 15 15 15
20 22 22 22 23 23 22 21 21 20 19 18 18 17 17 18 19 19 18 18 18 19 19 18 18 18 18 17 17 17 17 16 16 16 16 16 15 15 15 15 15 15 15 15
18 21 21 20 22 22 21 19 19 19 18 18 17 17 17 18 18 18 18 18 19 19 19 18 18 18 18 17 17 17 16 16 16 16 16 15 15 15 15 15 15 14 14 14
17 19 20 21 21 21 19 18 18 18 18 17 17 17 16 17 18 18 18 18 18 18 18 18 18 17 17 17 17 17 16 16 16 16 16 15 15 15 14 14 14 14 13 13
17 19 19 19 20 21 19 17 18 18 17 17 17 16 15 16 17 18 18 18 18 18 18 18 17 17 17 17 16 16 16 16 16 15 15 15 15 14 14 13 13 13 12 12
17 18 18 19 19 20 18 17 17 18 17 17 16 16 16 16 16 17 17 17 18 17 17 17 17 17 16 16 16 16 16 15 15 15 14 14 14 13 13 13 12 12 11 11
15 17 17 17 18 17 16 17 17 17 17 17 15 15 15 15 16 16 16 16 16 16 16 16 16 16 16 15 15 15 15 15 14 14 13 13 13 12 12 12 11 11 11 10
15 15 15 16 16 16 17 16 16 16 16 16 15 14 14 14 15 14 15 15 15 15 15 15 15 15 15 14 14 14 14 13 13 13 12 12 12 12 11 11 11 10 10 10
14 14 14 15 15 16 16 16 16 16 16 16 15 14 14 13 13 13 13 14 14 14 14 14 13 14 14 13 13 13 13 12 12 12 11 11 11 11 10 10 10 9 9 9
14 14 14 14 14 14 15 15 15 15 15 14 14 13 13 13 13 13 13 13 13 13 13 13 13 13 13 12 13 12 12 11 11 11 11 10 10 10 10 9 9 9 9 8
13 13 13 13 13 14 14 14 14 14 13 13 13 13 12 12 12 12 12 12 12 12 12 12 12 12 12 12 12 12 11 10 10 10 10 10 9 9 8 8 8 8 8 7
14 14 13 13 12 13 13 13 13 13 13 12 12 12 11 11 11 11 11 11 11 11 11 11 11 11 11 11 11 11 10 10 10 9 9 9 9 9 8 7 7 7 7 7
14 13 12 12 12 12 12 12 12 12 11 11 11 11 11 10 10 10 10 10 10 10 10 10 10 10 10 10 10 10 10 9 9 9 9 8 8 8 8 7 7 6 6 6
13 13 12 11 11 11 11 11 11 10 10 10 10 10 10 10 9 9 9 9 10 10 9 10 10 9 9 10 10 10 9 9 9 9 8 8 8 7 7 7 7 6 6 6
12 11 11 11 10 10 10 10 10 9 9 9 9 9 9 9 9 9 9 9 9 9 9 9 9 9 9 9 9 9 9 9 8 8 8 8 7 7 7 7 6 6 6 5
11 10 10 10 9 9 9 9 9 9 9 9 9 9 9 9 8 8 8 8 9 9 9 9 9 9 9 9 9 9 8 8 8 8 8 8 7 7 7 6 6 6 5 5
12 12 11 10 9 9 9 9 9 9 9 9 9 9 9 9 8 8 8 8 8 8 8 9 9 8 8 8 8 8 8 8 8 8 8 7 7 7 6 6 5 5 4 4
12 11 11 10 10 9 9 9 9 9 9 9 8 8 8 8 8 8 8 8 8 8 8 8 8 8 8 8 8 8 8 8 8 8 7 7 7 6 6 5 5 5 4 4
11 11 11 10 10 9 9 9 9 9 8 9 8 8 8 8 8 8 8 8 8 8 8 8 8 8 8 8 8 8 8 8 7 7 7 7 6 6 5 5 5 4 4 4
11 10 10 10 9 9 9 9 9 9 9 9 9 9 8 8 8 8 8 8 8 8 8 8 8 8 8 8 8 8 8 7 7 7 6 6 6 5 5 5 5 4 4 4
10 10 10 10 9 9 9 9 9 9 9 9 9 9 8 8 8 8 8 8 8 8 8 8 8 8 8 8 8 7 7 7 7 6 6 6 6 5 5 5 4 4 4 4
10 10 10 10 10 10 9 9 9 9 9 9 9 9 9 8 8 8 8 8 8 8 8 8 8 8 8 7 7 7 7 7 6 6 6 6 5 5 5 5 4 4 4 3
10 10 10 10 10 10 9 9 9 9 9 9 9 9 9 8 8 8 8 8 8 8 7 7 7 7 7 7 7 7 6 6 6 6 6 5 5 5 5 4 4 4 4 3
10 10 10 10 10 10 10 9 9 9 9 9 9 9 9 9 8 8 8 8 7 7 7 7 7 7 7 7 7 6 6 6 6 6 6 5 5 5 4 4 4 4 3 3
10 10 10 10 10 10 10 9 9 9 9 9 9 8 8 8 8 8 8 7 7 7 7 7 7 7 6 6 6 6 6 6 6 6 5 5 5 5 4 4 4 4 3 3
10 10 10 10 10 10 10 10 9 9 9 9 9 8 8 8 8 7 7 7 7 7 7 7 6 6 6 6 6 6 6 6 6 5 5 5 5 5 4 4 4 4 3 3
Wind_Speed
3 2 0 1 1 1 3 6 5 6 7 9 11 11 8 7 8 10 10 11 11 10 9 8 8 7 7 8 8 9 9 9 8 7 6 6 6 6 6 6 6 6 6 5
4 6 5 3 3 2 0 1 2 2 2 3 4 4 4 6 9 10 11 11 11 11 11 11 11 10 9 8 8 8 9 9 8 8 8 7 7 7 8 8 7 7 7 6
2 4 5 3 3 0 2 3 2 3 3 4 5 3 3 4 6 7 9 10 11 11 11 11 11 11 11 10 8 8 8 8 8 8 8 7 8 8 9 8 8 8 8 8
2 4 2 7 3 5 9 9 7 6 4 6 7 5 4 4 4 5 6 7 8 8 9 8 8 9 9 9 9 10 9 8 8 8 9 9 9 9 9 9 9 9 9 9
4 2 4 5 4 2 6 6 5 7 7 7 6 6 6 6 5 4 4 3 3 4 5 6 8 9 10 9 9 9 9 9 9 10 10 10 11 10 10 10 11 10 9 9
4 4 4 4 6 2 8 3 3 4 6 5 4 3 0 3 4 4 5 5 4 4 5 5 6 8 10 9 10 9 9 9 9 9 11 11 11 11 10 11 12 12 11 9
4 4 3 4 6 4 4 4 2 3 5 5 4 4 4 3 4 4 5 6 6 6 6 5 6 9 10 10 9 9 10 11 10 10 11 12 11 11 12 13 13 12 12 10
2 3 4 5 4 4 4 2 2 3 4 7 8 8 7 5 5 5 7 7 8 8 7 6 6 10 11 10 9 10 12 12 12 11 11 12 13 12 12 13 14 12 11 10
3 4 2 3 3 2 3 3 1 2 5 9 9 8 7 6 6 6 7 7 7 9 9 8 7 9 13 11 12 13 14 14 13 13 12 12 13 12 11 10 10 10 9 9
2 1 2 4 5 5 4 3 2 4 6 8 9 8 8 7 7 7 7 8 8 10 11 10 9 10 11 12 12 15 16 14 13 14 13 12 10 9 9 9 10 9 8 8
1 1 3 5 5 4 5 6 6 6 6 8 10 9 9 9 8 8 8 8 9 10 12 11 11 12 11 11 14 15 15 14 13 12 13 12 11 9 8 6 8 10 7 7
4 3 3 1 1 4 5 5 6 8 7 7 9 11 11 10 9 9 10 10 11 12 13 12 12 12 11 11 13 15 14 13 11 11 11 11 12 11 15 12 13 13 11 8
3 3 4 3 3 4 5 6 7 8 9 10 9 11 12 12 10 11 11 11 12 12 12 12 13 12 11 10 13 14 13 12 10 10 10 10 10 11 10 10 13 12 11 11
6 6 5 3 4 5 8 9 10 10 10 11 11 12 13 13 12 13 12 11 12 13 12 12 13 12 9 11 13 13 13 13 12 10 9 9 8 8 8 9 7 5 6 8
4 5 6 7 7 7 8 10 12 12 12 12 12 12 13 14 14 13 11 11 12 13 13 13 13 11 9 10 12 12 11 9 9 9 9 8 7 7 7 7 7 5 4 4
7 8 10 10 10 9 9 10 12 12 12 13 12 12 13 13 13 13 12 11 13 12 10 10 10 7 8 10 11 10 10 14 11 9 8 8 7 7 6 6 6 5 4 3
9 8 10 11 11 10 10 10 11 12 13 14 14 13 13 14 14 13 12 11 11 10 9 9 8 7 8 9 9 8 8 9 12 9 7 7 7 7 6 6 6 5 3 4
8 9 10 13 13 12 12 12 12 13 13 14 14 14 14 13 13 11 10 10 10 9 8 7 8 8 8 8 8 7 7 7 7 8 7 7 7 7 7 6 6 6 4 4
11 13 12 12 13 13 12 12 12 12 12 13 13 12 12 12 11 11 9 9 10 8 5 6 9 8 8 8 9 7 8 8 8 8 8 10 9 7 7 6 6 5 5 4
12 13 14 13 13 13 13 12 12 12 11 12 13 12 12 11 10 10 9 7 5 4 5 6 7 7 7 7 9 7 8 9 9 8 8 8 8 7 6 6 6 5 5 4
13 14 14 14 13 12 12 12 12 12 11 11 12 12 11 10 9 9 9 7 3 5 7 8 6 6 6 7 10 7 7 8 8 7 7 7 7 6 6 5 5 5 4 4
12 13 14 14 13 12 10 10 11 13 12 11 11 11 11 9 9 8 6 5 5 7 6 5 5 7 9 9 7 7 7 7 7 6 6 6 7 6 5 5 4 4 3 3
12 12 12 12 12 11 11 10 11 11 11 10 10 10 9 8 7 7 5 3 5 8 7 5 8 12 12 8 6 7 7 7 6 6 6 6 6 6 5 5 4 4 4 3
12 11 11 11 11 11 11 9 9 8 9 9 9 9 9 8 5 4 5 8 9 10 6 7 11 12 10 6 6 6 6 6 6 6 6 5 5 5 5 5 4 3 3 4
12 11 11 12 10 9 9 10 10 9 9 7 8 8 7 6 6 5 6 7 9 9 6 7 10 10 7 5 5 5 5 5 6 6 6 5 5 5 4 4 4 4 4 3
10 9 8 8 8 8 7 8 7 6 7 7 6 6 6 6 7 6 5 6 7 7 5 4 4 5 4 4 5 5 5 5 5 5 5 5 5 5 4 3 4 4 3 4
9 7 7 7 6 7 7 7 7 7 7 8 7 6 6 6 6 6 6 5 4 4 3 3 3 3 3 4 4 4 4 4 4 4 5 5 5 4 5 5 4 5 5 6
Wind_Direction
161 203 91 351 322 136 140 170 183 219 196 204 200 197 189 173 158 164 164 165 166 167 166 163 161 161 161 161 161 161 157 159 160 156 151 147 147 143 137 130 126 117 110 102
20 20 37 22 348 335 105 132 159 146 248 229 173 149 152 170 170 168 171 172 172 169 170 172 172 170 166 163 162 157 160 163 162 155 152 153 146 132 119 111 106 103 101 97
330 351 38 343 299 248 61 24 137 158 212 130 112 124 180 173 165 168 173 172 174 175 175 178 176 172 170 169 162 158 161 159 157 155 153 148 140 126 118 114 107 99 93 88
111 56 230 249 304 96 85 52 59 86 95 107 117 105 63 66 114 144 158 166 172 172 172 175 171 166 160 159 159 158 158 158 152 145 138 129 123 120 116 111 107 101 94 88
119 155 271 313 352 55 105 57 39 91 95 97 112 77 38 23 57 102 117 125 144 162 166 165 165 161 152 152 153 152 154 151 149 145 138 130 126 123 117 112 104 97 92 87
129 156 214 272 316 352 101 76 354 97 111 123 110 92 255 2 49 71 77 87 107 132 133 146 159 150 143 145 142 143 143 138 134 133 130 127 125 119 113 110 107 101 89 82
152 184 232 287 318 29 110 193 247 118 128 127 127 158 149 102 77 80 85 82 84 101 121 132 138 131 130 131 134 132 123 117 114 115 116 117 114 113 113 110 105 100 91 80
139 169 233 322 28 92 175 181 102 108 120 121 124 124 117 103 83 72 74 75 82 91 90 90 110 125 125 126 124 117 111 108 105 105 109 110 109 108 110 112 109 105 97 84
174 198 242 21 89 106 118 105 86 111 127 128 128 128 125 115 103 91 85 84 88 97 91 80 87 117 120 119 117 112 106 102 100 96 97 104 109 111 109 109 111 109 102 95
80 55 39 40 52 45 64 91 85 120 131 129 127 127 121 115 106 98 89 90 94 96 94 86 82 94 106 112 113 112 108 104 100 98 94 88 90 97 105 109 113 112 109 105
146 188 59 37 33 41 63 74 79 92 107 120 124 125 122 116 109 103 93 88 92 96 97 94 93 93 96 106 110 107 104 101 99 98 98 90 80 72 87 88 117 122 121 121
205 197 150 188 344 57 78 84 99 106 100 104 116 121 118 113 108 105 100 96 94 92 93 92 92 92 92 101 110 111 109 108 106 104 102 102 100 83 60 75 86 97 107 110
159 129 120 117 64 64 94 97 100 107 114 111 108 114 113 109 105 101 98 97 97 96 94 93 91 91 92 99 105 108 113 115 114 113 112 110 109 109 100 70 65 76 88 94
118 110 109 106 99 90 98 100 98 98 101 107 110 110 110 107 103 100 97 95 96 95 93 93 92 87 88 96 100 104 108 113 115 115 116 115 114 116 119 120 108 74 62 76
95 103 122 118 107 102 105 107 104 102 102 101 105 108 110 109 106 102 98 96 94 91 90 91 91 88 89 96 100 103 107 111 114 118 120 121 121 119 116 115 112 105 79 52
111 110 116 117 115 113 111 112 111 111 110 108 108 107 106 105 103 99 95 96 97 94 92 92 91 90 90 96 98 99 107 117 119 120 121 123 123 122 118 114 111 108 104 97
133 134 131 128 125 121 118 115 115 115 113 112 112 111 109 107 103 99 95 92 94 94 93 96 97 94 91 93 99 103 105 113 114 115 122 128 129 128 125 120 118 117 114 117
145 144 141 138 135 128 121 116 114 114 115 115 115 113 113 112 111 110 107 102 94 85 82 92 95 92 91 94 99 103 104 104 106 108 109 112 117 120 119 119 123 121 112 99
127 128 129 130 131 128 125 122 121 118 117 117 116 114 112 112 112 110 106 101 101 99 89 87 90 86 89 99 103 99 103 103 101 100 103 108 108 111 117 119 118 119 120 116
121 123 124 125 127 128 128 127 125 122 122 121 118 114 112 113 113 111 105 99 106 124 118 97 87 84 87 97 102 100 104 107 107 105 105 108 112 114 116 120 122 124 125 129
123 124 125 125 125 126 128 130 128 126 124 123 120 119 118 118 116 113 109 102 87 94 92 87 83 84 88 99 100 103 105 109 111 113 115 115 117 118 119 122 125 131 134 137
125 124 123 123 122 121 123 123 124 125 124 122 121 121 121 119 114 107 104 122 125 107 93 80 84 93 98 96 100 104 107 109 112 115 117 120 123 125 128 131 134 138 139 143
123 121 122 124 123 121 118 120 125 128 130 131 130 130 128 127 127 125 122 122 113 105 97 94 100 98 96 95 102 105 109 114 120 123 127 130 132 134 137 139 144 145 145 148
118 120 121 120 118 118 121 124 122 124 125 125 129 131 128 120 106 105 123 124 121 109 102 109 102 97 95 97 102 105 109 116 122 126 128 129 132 135 141 146 149 154 157 158
117 115 115 118 120 124 127 124 117 117 117 118 119 119 122 129 133 132 121 124 127 114 107 111 107 102 99 106 115 119 123 131 134 134 134 137 141 144 151 157 163 168 173 180
114 116 120 125 130 131 129 125 123 125 123 119 114 113 113 113 117 119 119 127 128 123 124 123 118 111 113 118 128 132 135 134 129 132 143 147 151 153 157 167 170 175 182 187
110 111 111 112 116 124 127 128 129 130 132 133 130 130 129 127 127 129 128 128 130 134 143 150 146 144 145 146 152 151 148 145 145 151 153 154 157 163 172 176 179 183 186 190
Height
1448 1445 1443 1446 1447 1448 1454 1461 1470 1466 1463 1459 1457 1457 1457 1458 1460 1463 1466 1469 1471 1474 1476 1478 1480 1483 1485 1487 1489 1491 1493 1496 1499 1502 1505 1508 1510 1513 1516 1519 1522 1524 1526 1528
1450 1444 1444 1448 1446 1446 1448 1450 1456 1458 1460 1452 1453 1455 1457 1459 1461 1463 1465 1467 1469 1471 1474 1476 1478 1481 1483 1486 1488 1491 1493 1496 1498 1501 1504 1507 1510 1512 1515 1518 1520 1522 1524 1526
1463 1452 1451 1460 1450 1448 1451 1451 1452 1459 1459 1453 1455 1457 1458 1459 1461 1463 1464 1466 1467 1469 1471 1473 1476 1478 1481 1484 1488 1490 1493 1495 1498 1501 1504 1507 1509 1512 1514 1516 1519 1521 1523 1525
1465 1462 1472 1461 1444 1444 1451 1455 1452 1454 1455 1454 1456 1458 1459 1460 1461 1462 1464 1465 1466 1467 1469 1472 1474 1477 1480 1483 1486 1489 1492 1494 1497 1500 1502 1505 1508 1510 1513 1516 1518 1520 1522 1524
1471 1472 1466 1454 1447 1447 1454 1462 1458 1458 1458 1458 1459 1459 1461 1462 1462 1461 1462 1464 1465 1467 1469 1471 1474 1476 1478 1482 1485 1488 1490 1493 1496 1498 1501 1503 1506 1509 1512 1514 1517 1519 1521 1523
1467 1470 1474 1461 1448 1445 1450 1467 1460 1458 1458 1459 1460 1465 1466 1464 1463 1462 1462 1463 1465 1466 1468 1470 1473 1474 1477 1480 1483 1485 1488 1491 1494 1497 1499 1502 1505 1508 1511 1513 1515 1517 1520 1522
1466 1468 1464 1454 1448 1446 1463 1468 1459 1458 1457 1458 1459 1463 1464 1464 1463 1463 1462 1463 1464 1465 1466 1469 1471 1473 1476 1479 1481 1484 1487 1490 1493 1496 1499 1502 1504 1507 1510 1512 1514 1517 1519 1521
1467 1470 1469 1452 1450 1456 1460 1457 1457 1457 1457 1457 1458 1460 1462 1463 1463 1463 1463 1463 1464 1465 1465 1467 1469 1471 1474 1477 1480 1483 1486 1489 1492 1495 1498 1501 1504 1507 1510 1512 1514 1517 1520 1522
1463 1466 1459 1454 1454 1455 1455 1456 1457 1457 1457 1458 1459 1460 1462 1463 1463 1464 1464 1464 1465 1465 1466 1467 1469 1471 1473 1477 1480 1482 1485 1489 1492 1495 1499 1502 1505 1508 1511 1513 1516 1518 1521 1523
1459 1458 1456 1455 1455 1455 1455 1455 1456 1456 1456 1457 1458 1459 1461 1462 1463 1464 1465 1465 1466 1467 1467 1469 1471 1473 1475 1478 1481 1483 1486 1489 1493 1496 1500 1503 1506 1509 1512 1515 1518 1520 1523 1525
1458 1457 1456 1456 1456 1456 1454 1455 1455 1455 1456 1456 1458 1459 1461 1462 1464 1465 1466 1467 1468 1468 1469 1471 1473 1476 1478 1480 1483 1485 1488 1492 1496 1499 1502 1505 1508 1512 1515 1518 1520 1522 1525 1527
1457 1455 1456 1457 1456 1455 1454 1454 1454 1455 1456 1457 1458 1459 1461 1463 1465 1467 1468 1469 1470 1471 1472 1474 1477 1479 1481 1484 1486 1489 1492 1495 1498 1502 1505 1508 1511 1514 1518 1521 1524 1526 1527 1529
1452 1452 1454 1455 1455 1454 1454 1454 1455 1455 1456 1457 1459 1461 1462 1464 1467 1469 1471 1472 1473 1475 1477 1479 1481 1483 1486 1489 1491 1493 1496 1499 1502 1505 1509 1512 1515 1516 1519 1523 1526 1528 1530 1531
1451 1452 1453 1454 1455 1455 1455 1455 1455 1456 1457 1458 1460 1462 1464 1467 1469 1472 1474 1476 1477 1479 1481 1483 1485 1488 1491 1494 1496 1498 1501 1504 1506 1510 1513 1516 1519 1521 1523 1525 1528 1530 1532 1534
1451 1451 1452 1453 1454 1455 1456 1456 1456 1458 1459 1461 1463 1465 1467 1470 1472 1476 1478 1480 1482 1484 1487 1489 1491 1494 1497 1499 1501 1503 1506 1509 1512 1515 1517 1520 1523 1525 1527 1529 1531 1532 1534 1535
1451 1452 1452 1453 1455 1456 1457 1458 1458 1460 1462 1464 1466 1469 1472 1474 1477 1480 1483 1486 1487 1489 1492 1495 1497 1500 1503 1505 1506 1508 1511 1514 1516 1518 1521 1524 1526 1528 1530 1532 1533 1534 1536 1537
1449 1451 1453 1454 1456 1457 1459 1460 1461 1463 1465 1467 1470 1474 1477 1479 1482 1486 1489 1492 1494 1496 1499 1501 1503 1505 1508 1509 1511 1513 1515 1518 1520 1522 1524 1526 1528 1530 1532 1534 1535 1536 1537 1538
1448 1449 1451 1453 1455 1459 1462 1464 1466 1468 1470 1472 1475 1479 1482 1485 1488 1491 1495 1497 1500 1502 1505 1507 1508 1510 1512 1514 1515 1517 1519 1521 1523 1525 1527 1529 1531 1532 1534 1535 1536 1538 1539 1539
1449 1451 1453 1456 1458 1461 1464 1467 1470 1473 1475 1478 1481 1484 1487 1490 1493 1496 1499 1502 1504 1506 1509 1511 1513 1514 1516 1518 1519 1521 1522 1524 1526 1528 1529 1531 1532 1534 1536 1537 1538 1539 1539 1540
1451 1453 1456 1459 1462 1465 1468 1472 1475 1478 1481 1484 1486 1489 1493 1496 1498 1501 1504 1507 1509 1511 1513 1515 1516 1518 1519 1521 1522 1524 1525 1527 1528 1530 1531 1533 1534 1536 1537 1538 1539 1540 1540 1540
1454 1457 1460 1463 1466 1469 1473 1476 1479 1482 1486 1489 1491 1494 1497 1500 1503 1505 1507 1510 1513 1515 1516 1518 1519 1520 1522 1523 1525 1526 1528 1529 1531 1532 1533 1535 1536 1537 1538 1539 1540 1540 1540 1540
1457 1460 1463 1467 1470 1474 1477 1481 1484 1487 1490 1493 1496 1499 1501 1504 1506 1509 1511 1513 1515 1517 1519 1521 1522 1523 1524 1526 1527 1529 1530 1531 1533 1534 1535 1536 1537 1538 1539 1540 1540 1540 1540 1540
1460 1464 1467 1471 1474 1478 1482 1485 1488 1491 1494 1497 1500 1502 1504 1507 1509 1511 1513 1516 1518 1519 1521 1523 1524 1525 1527 1528 1529 1531 1532 1533 1534 1535 1536 1537 1538 1539 1539 1540 1540 1540 1540 1539
1464 1468 1472 1475 1479 1482 1485 1489 1492 1495 1498 1501 1503 1506 1507 1509 1512 1514 1516 1518 1519 1521 1523 1525 1526 1527 1528 1530 1531 1532 1533 1534 1535 1536 1537 1538 1539 1539 1539 1540 1540 1539 1539 1539
1468 1472 1476 1479 1482 1486 1489 1492 1495 1498 1501 1504 1506 1508 1510 1512 1513 1515 1517 1519 1521 1523 1524 1526 1527 1529 1530 1531 1532 1533 1534 1535 1536 1537 1537 1538 1539 1539 1539 1539 1539 1539 1538 1537
1473 1477 1480 1483 1486 1489 1492 1495 1498 1501 1503 1506 1508 1510 1512 1513 1515 1517 1518 1520 1522 1524 1525 1527 1528 1530 1531 1532 1533 1534 1535 1536 1536 1537 1537 1538 1538 1538 1538 1538 1538 1537 1537 1536
1478 1482 1485 1488 1490 1493 1495 1498 1500 1503 1505 1507 1509 1511 1513 1514 1516 1518 1519 1521 1523 1524 1526 1528 1529 1530 1531 1532 1533 1534 1535 1536 1536 1537 1537 1537 1537 1537 1537 1537 1537 1536 1535 1534